Time,TemperatureF,DewpointF,PressureIn,WindDirection,WindDirectionDegrees,WindSpeedMPH,WindSpeedGustMPH,Humidity,HourlyPrecipIn,Conditions,Clouds,dailyrainin,SoftwareType,DateUTC
2013-04-06 00:02:00,64.0,53.0,29.76,SE,143,5.0,9.0,68,0.00,,,0.00,,2013-04-05 21:02:00,
2013-04-06 00:12:00,64.0,53.0,29.76,SE,143,5.0,9.0,68,0.00,,,0.00,,2013-04-05 21:12:00,
2013-04-06 00:22:00,64.0,54.0,29.76,WNW,288,5.0,10.0,70,0.00,,,0.00,,2013-04-05 21:22:00,
2013-04-06 00:32:00,64.0,54.0,29.76,SW,235,3.0,6.0,71,0.00,,,0.00,,2013-04-05 21:32:00,
2013-04-06 00:42:00,64.0,54.0,29.76,SW,235,3.0,6.0,71,0.00,,,0.00,,2013-04-05 21:42:00,
2013-04-06 00:52:00,64.0,54.0,29.76,SE,132,2.0,3.0,71,0.00,,,0.00,,2013-04-05 21:52:00,
2013-04-06 01:02:00,63.0,53.0,29.75,ESE,106,2.0,4.0,71,0.00,,,0.00,,2013-04-05 22:02:00,
2013-04-06 01:12:00,63.0,53.0,29.75,ESE,106,2.0,4.0,71,0.00,,,0.00,,2013-04-05 22:12:00,
2013-04-06 01:22:00,63.0,53.0,29.75,WNW,291,2.0,3.0,71,0.00,,,0.00,,2013-04-05 22:22:00,
2013-04-06 01:32:00,63.0,53.0,29.74,ENE,57,1.0,3.0,71,0.00,,,0.00,,2013-04-05 22:32:00,
2013-04-06 01:42:00,63.0,53.0,29.74,ENE,57,1.0,3.0,71,0.00,,,0.00,,2013-04-05 22:42:00,
2013-04-06 01:52:00,63.0,53.0,29.74,West,280,1.0,3.0,71,0.00,,,0.00,,2013-04-05 22:52:00,
2013-04-06 02:02:00,63.0,53.0,29.74,NW,305,0.0,2.0,71,0.00,,,0.00,,2013-04-05 23:02:00,
2013-04-06 02:11:00,63.0,53.0,29.74,NW,305,0.0,2.0,71,0.00,,,0.00,,2013-04-05 23:11:00,
2013-04-06 02:22:00,63.0,54.0,29.74,ENE,71,0.0,1.0,72,0.00,,,0.00,,2013-04-05 23:22:00,
2013-04-06 02:32:00,63.0,54.0,29.74,ENE,76,0.0,2.0,72,0.00,,,0.00,,2013-04-05 23:32:00,
2013-04-06 02:41:00,63.0,54.0,29.74,ENE,76,0.0,2.0,72,0.00,,,0.00,,2013-04-05 23:41:00,
2013-04-06 02:52:00,63.0,53.0,29.74,NNW,346,1.0,3.0,71,0.00,,,0.00,,2013-04-05 23:52:00,
2013-04-06 03:02:00,62.0,53.0,29.74,NNE,30,0.0,1.0,72,0.00,,,0.00,,2013-04-06 00:02:00,
2013-04-06 03:12:00,62.0,53.0,29.74,NNE,30,0.0,1.0,72,0.00,,,0.00,,2013-04-06 00:12:00,
2013-04-06 03:22:00,62.0,53.0,29.74,ENE,73,0.0,1.0,73,0.00,,,0.00,,2013-04-06 00:22:00,
2013-04-06 03:32:00,62.0,53.0,29.74,NE,45,0.0,1.0,73,0.00,,,0.00,,2013-04-06 00:32:00,
2013-04-06 03:42:00,62.0,53.0,29.74,NE,45,0.0,1.0,73,0.00,,,0.00,,2013-04-06 00:42:00,
2013-04-06 03:52:00,62.0,53.0,29.73,NE,51,0.0,2.0,73,0.00,,,0.00,,2013-04-06 00:52:00,
2013-04-06 04:02:00,62.0,53.0,29.73,NE,45,0.0,2.0,72,0.00,,,0.00,,2013-04-06 01:02:00,
2013-04-06 04:12:00,61.0,52.0,29.73,NE,45,0.0,1.0,72,0.00,,,0.00,,2013-04-06 01:12:00,
2013-04-06 04:22:00,61.0,52.0,29.73,NE,45,0.0,1.0,72,0.00,,,0.00,,2013-04-06 01:22:00,
2013-04-06 04:32:00,61.0,52.0,29.73,NE,45,0.0,1.0,72,0.00,,,0.00,,2013-04-06 01:32:00,
2013-04-06 04:42:00,61.0,52.0,29.73,NE,45,0.0,1.0,72,0.00,,,0.00,,2013-04-06 01:42:00,
2013-04-06 04:52:00,61.0,52.0,29.73,NE,45,0.0,1.0,72,0.00,,,0.00,,2013-04-06 01:52:00,
2013-04-06 05:02:00,61.0,52.0,29.72,NE,45,0.0,1.0,72,0.00,,,0.00,,2013-04-06 02:02:00,
2013-04-06 05:11:00,61.0,52.0,29.72,NE,45,0.0,1.0,72,0.00,,,0.00,,2013-04-06 02:11:00,
2013-04-06 05:22:00,61.0,52.0,29.73,NE,45,1.0,2.0,73,0.00,,,0.00,,2013-04-06 02:22:00,
2013-04-06 05:32:00,61.0,52.0,29.73,NE,46,0.0,1.0,73,0.00,,,0.00,,2013-04-06 02:32:00,
2013-04-06 05:42:00,61.0,52.0,29.73,NE,46,0.0,1.0,73,0.00,,,0.00,,2013-04-06 02:42:00,
2013-04-06 05:52:00,61.0,52.0,29.73,NE,45,1.0,2.0,73,0.00,,,0.00,,2013-04-06 02:52:00,
2013-04-06 06:02:00,60.0,52.0,29.73,NE,45,0.0,1.0,74,0.00,,,0.00,,2013-04-06 03:02:00,
2013-04-06 06:11:00,60.0,52.0,29.73,NE,45,0.0,1.0,74,0.00,,,0.00,,2013-04-06 03:11:00,
2013-04-06 06:21:00,60.0,52.0,29.73,North,0,0.0,0.0,75,0.00,,,0.00,,2013-04-06 03:21:00,
2013-04-06 06:33:00,60.0,52.0,29.74,NE,45,0.0,2.0,76,0.00,,,0.00,,2013-04-06 03:33:00,
2013-04-06 06:42:00,60.0,52.0,29.74,NE,45,0.0,2.0,76,0.00,,,0.00,,2013-04-06 03:42:00,
2013-04-06 06:53:00,59.0,51.0,29.74,North,0,0.0,0.0,76,0.00,,,0.00,,2013-04-06 03:53:00,
2013-04-06 07:03:00,59.0,52.0,29.74,NE,45,0.0,1.0,77,0.00,,,0.00,,2013-04-06 04:03:00,
2013-04-06 07:12:00,59.0,52.0,29.74,NE,45,0.0,1.0,77,0.00,,,0.00,,2013-04-06 04:12:00,
2013-04-06 07:22:00,59.0,52.0,29.74,NE,41,1.0,2.0,77,0.00,,,0.00,,2013-04-06 04:22:00,
2013-04-06 07:32:00,59.0,51.0,29.75,NE,40,0.0,2.0,76,0.00,,,0.00,,2013-04-06 04:32:00,
2013-04-06 07:42:00,59.0,51.0,29.75,NE,40,0.0,2.0,76,0.00,,,0.00,,2013-04-06 04:42:00,
2013-04-06 07:52:00,60.0,52.0,29.74,NE,45,0.0,1.0,76,0.00,,,0.00,,2013-04-06 04:52:00,
2013-04-06 08:02:00,60.0,52.0,29.74,ENE,63,0.0,2.0,76,0.00,,,0.00,,2013-04-06 05:02:00,
2013-04-06 08:11:00,60.0,52.0,29.74,ENE,63,0.0,2.0,76,0.00,,,0.00,,2013-04-06 05:11:00,
2013-04-06 08:22:00,60.0,53.0,29.74,North,0,0.0,0.0,77,0.00,,,0.00,,2013-04-06 05:22:00,
2013-04-06 08:32:00,61.0,53.0,29.75,East,90,0.0,3.0,74,0.00,,,0.00,,2013-04-06 05:32:00,
2013-04-06 08:42:00,61.0,53.0,29.75,East,90,0.0,3.0,74,0.00,,,0.00,,2013-04-06 05:42:00,
2013-04-06 08:51:00,63.0,54.0,29.74,North,0,0.0,0.0,72,0.00,,,0.00,,2013-04-06 05:51:00,
2013-04-06 09:02:00,64.0,52.0,29.74,NE,46,1.0,3.0,64,0.00,,,0.00,,2013-04-06 06:02:00,
2013-04-06 09:11:00,64.0,52.0,29.74,NE,46,1.0,3.0,64,0.00,,,0.00,,2013-04-06 06:11:00,
2013-04-06 09:22:00,65.0,53.0,29.74,NE,45,0.0,3.0,65,0.00,,,0.00,,2013-04-06 06:22:00,
2013-04-06 09:32:00,67.0,53.0,29.75,NW,311,0.0,0.0,60,0.00,,,0.00,,2013-04-06 06:32:00,
2013-04-06 09:42:00,67.0,53.0,29.75,NW,311,0.0,0.0,60,0.00,,,0.00,,2013-04-06 06:42:00,
2013-04-06 09:52:00,69.0,53.0,29.75,WSW,239,0.0,1.0,56,0.00,,,0.00,,2013-04-06 06:52:00,
2013-04-06 10:02:00,68.0,54.0,29.75,WSW,258,2.0,3.0,60,0.00,,,0.00,,2013-04-06 07:02:00,
2013-04-06 10:11:00,68.0,54.0,29.75,WSW,258,2.0,3.0,60,0.00,,,0.00,,2013-04-06 07:11:00,
2013-04-06 10:22:00,67.0,52.0,29.75,West,260,2.0,3.0,59,0.00,,,0.00,,2013-04-06 07:22:00,
2013-04-06 10:32:00,67.0,52.0,29.75,West,260,2.0,3.0,59,0.00,,,0.00,,2013-04-06 07:32:00,
2013-04-06 10:42:00,67.0,52.0,29.75,West,260,2.0,3.0,59,0.00,,,0.00,,2013-04-06 07:42:00,
2013-04-06 10:52:00,67.0,52.0,29.75,West,260,2.0,3.0,59,0.00,,,0.00,,2013-04-06 07:52:00,
2013-04-06 11:02:00,67.0,52.0,29.75,West,260,2.0,3.0,59,0.00,,,0.00,,2013-04-06 08:02:00,
2013-04-06 11:12:00,67.0,52.0,29.75,West,260,2.0,3.0,59,0.00,,,0.00,,2013-04-06 08:12:00,
2013-04-06 11:22:00,67.0,52.0,29.75,West,260,2.0,3.0,59,0.00,,,0.00,,2013-04-06 08:22:00,
2013-04-06 11:32:00,67.0,52.0,29.75,West,260,2.0,3.0,59,0.00,,,0.00,,2013-04-06 08:32:00,
2013-04-06 11:42:00,67.0,52.0,29.75,West,260,2.0,3.0,59,0.00,,,0.00,,2013-04-06 08:42:00,
2013-04-06 11:52:00,67.0,52.0,29.75,West,260,2.0,3.0,59,0.00,,,0.00,,2013-04-06 08:52:00,
2013-04-06 12:02:00,67.0,52.0,29.75,West,260,2.0,3.0,59,0.00,,,0.00,,2013-04-06 09:02:00,
2013-04-06 12:12:00,67.0,52.0,29.75,West,260,2.0,3.0,59,0.00,,,0.00,,2013-04-06 09:12:00,
2013-04-06 12:21:00,67.0,52.0,29.75,West,260,2.0,3.0,59,0.00,,,0.00,,2013-04-06 09:21:00,
2013-04-06 12:32:00,67.0,52.0,29.75,West,260,2.0,3.0,59,0.00,,,0.00,,2013-04-06 09:32:00,
2013-04-06 12:42:00,67.0,52.0,29.75,West,260,2.0,3.0,59,0.00,,,0.00,,2013-04-06 09:42:00,
2013-04-06 12:52:00,67.0,52.0,29.75,West,260,2.0,3.0,59,0.00,,,0.00,,2013-04-06 09:52:00,
2013-04-06 13:02:00,67.0,52.0,29.75,West,260,2.0,3.0,59,0.00,,,0.00,,2013-04-06 10:02:00,
2013-04-06 13:12:00,67.0,52.0,29.75,West,260,2.0,3.0,59,0.00,,,0.00,,2013-04-06 10:12:00,
2013-04-06 13:22:00,67.0,52.0,29.75,West,260,2.0,3.0,59,0.00,,,0.00,,2013-04-06 10:22:00,
2013-04-06 13:32:00,67.0,52.0,29.75,West,260,2.0,3.0,59,0.00,,,0.00,,2013-04-06 10:32:00,
2013-04-06 13:42:00,67.0,52.0,29.75,West,260,2.0,3.0,59,0.00,,,0.00,,2013-04-06 10:42:00,
2013-04-06 13:52:00,67.0,52.0,29.75,West,260,2.0,3.0,59,0.00,,,0.00,,2013-04-06 10:52:00,
2013-04-06 14:02:00,67.0,52.0,29.75,West,260,2.0,3.0,59,0.00,,,0.00,,2013-04-06 11:02:00,
2013-04-06 14:11:00,67.0,52.0,29.75,West,260,2.0,3.0,59,0.00,,,0.00,,2013-04-06 11:11:00,
2013-04-06 14:22:00,67.0,52.0,29.75,West,260,2.0,3.0,59,0.00,,,0.00,,2013-04-06 11:22:00,
2013-04-06 14:32:00,67.0,52.0,29.75,West,260,2.0,3.0,59,0.00,,,0.00,,2013-04-06 11:32:00,
2013-04-06 14:42:00,67.0,52.0,29.75,West,260,2.0,3.0,59,0.00,,,0.00,,2013-04-06 11:42:00,
2013-04-06 14:52:00,67.0,52.0,29.75,West,260,2.0,3.0,59,0.00,,,0.00,,2013-04-06 11:52:00,
2013-04-06 15:02:00,67.0,52.0,29.75,West,260,2.0,3.0,59,0.00,,,0.00,,2013-04-06 12:02:00,
2013-04-06 15:11:00,67.0,52.0,29.75,West,260,2.0,3.0,59,0.00,,,0.00,,2013-04-06 12:11:00,
2013-04-06 15:21:00,67.0,52.0,29.75,West,260,2.0,3.0,59,0.00,,,0.00,,2013-04-06 12:21:00,
2013-04-06 15:32:00,67.0,52.0,29.75,West,260,2.0,3.0,59,0.00,,,0.00,,2013-04-06 12:32:00,
2013-04-06 15:42:00,67.0,52.0,29.75,West,260,2.0,3.0,59,0.00,,,0.00,,2013-04-06 12:42:00,
2013-04-06 15:52:00,67.0,52.0,29.75,West,260,2.0,3.0,59,0.00,,,0.00,,2013-04-06 12:52:00,
2013-04-06 16:02:00,67.0,52.0,29.75,West,260,2.0,3.0,59,0.00,,,0.00,,2013-04-06 13:02:00,
2013-04-06 16:11:00,67.0,52.0,29.75,West,260,2.0,3.0,59,0.00,,,0.00,,2013-04-06 13:11:00,
2013-04-06 16:23:00,67.0,52.0,29.75,West,260,2.0,3.0,59,0.00,,,0.00,,2013-04-06 13:23:00,
2013-04-06 16:32:00,67.0,52.0,29.75,West,260,2.0,3.0,59,0.00,,,0.00,,2013-04-06 13:32:00,
2013-04-06 16:42:00,67.0,52.0,29.75,West,260,2.0,3.0,59,0.00,,,0.00,,2013-04-06 13:42:00,
2013-04-06 16:52:00,67.0,52.0,29.75,West,260,2.0,3.0,59,0.00,,,0.00,,2013-04-06 13:52:00,
2013-04-06 17:03:00,67.0,52.0,29.75,West,260,2.0,3.0,59,0.00,,,0.00,,2013-04-06 14:03:00,
2013-04-06 17:11:00,71.0,53.0,29.71,NNW,332,0.0,2.0,53,0.00,,,0.00,,2013-04-06 14:11:00,
2013-04-06 17:21:00,71.0,53.0,29.71,NNW,332,0.0,2.0,53,0.00,,,0.00,,2013-04-06 14:21:00,
2013-04-06 17:32:00,71.0,52.0,29.70,WSW,238,0.0,2.0,52,0.00,,,0.00,,2013-04-06 14:32:00,
2013-04-06 17:42:00,71.0,52.0,29.70,WSW,238,0.0,2.0,52,0.00,,,0.00,,2013-04-06 14:42:00,
2013-04-06 17:52:00,70.0,53.0,29.70,West,272,1.0,3.0,55,0.00,,,0.00,,2013-04-06 14:52:00,
2013-04-06 18:01:00,70.0,54.0,29.70,West,269,0.0,2.0,56,0.00,,,0.00,,2013-04-06 15:01:00,
2013-04-06 18:11:00,70.0,54.0,29.70,West,269,0.0,2.0,56,0.00,,,0.00,,2013-04-06 15:11:00,
2013-04-06 18:21:00,69.0,53.0,29.70,WSW,255,1.0,2.0,57,0.00,,,0.00,,2013-04-06 15:21:00,
2013-04-06 18:32:00,69.0,54.0,29.69,North,0,0.0,0.0,59,0.00,,,0.00,,2013-04-06 15:32:00,
2013-04-06 18:42:00,69.0,54.0,29.69,North,0,0.0,0.0,59,0.00,,,0.00,,2013-04-06 15:42:00,
2013-04-06 18:52:00,69.0,54.0,29.69,NE,46,0.0,2.0,58,0.00,,,0.00,,2013-04-06 15:52:00,
2013-04-06 19:04:00,69.0,54.0,29.70,West,270,0.0,1.0,59,0.00,,,0.00,,2013-04-06 16:04:00,
2013-04-06 19:16:00,69.0,54.0,29.70,West,270,0.0,1.0,59,0.00,,,0.00,,2013-04-06 16:16:00,
2013-04-06 19:22:00,69.0,55.0,29.69,NE,40,0.0,2.0,60,0.00,,,0.00,,2013-04-06 16:22:00,
2013-04-06 19:32:00,69.0,54.0,29.69,WNW,285,0.0,1.0,59,0.00,,,0.00,,2013-04-06 16:32:00,
2013-04-06 19:41:00,69.0,54.0,29.69,WNW,285,0.0,1.0,59,0.00,,,0.00,,2013-04-06 16:41:00,
2013-04-06 19:52:00,68.0,53.0,29.70,West,263,0.0,2.0,59,0.00,,,0.00,,2013-04-06 16:52:00,
2013-04-06 20:02:00,67.0,54.0,29.71,WSW,257,1.0,3.0,62,0.00,,,0.00,,2013-04-06 17:02:00,
2013-04-06 20:12:00,67.0,54.0,29.71,WSW,257,1.0,3.0,62,0.00,,,0.00,,2013-04-06 17:12:00,
2013-04-06 20:22:00,67.0,54.0,29.69,East,90,0.0,0.0,63,0.00,,,0.00,,2013-04-06 17:22:00,
2013-04-06 20:32:00,67.0,54.0,29.69,NE,45,0.0,1.0,64,0.00,,,0.00,,2013-04-06 17:32:00,
2013-04-06 20:42:00,67.0,54.0,29.69,NE,45,0.0,1.0,64,0.00,,,0.00,,2013-04-06 17:42:00,
2013-04-06 20:52:00,67.0,54.0,29.70,East,90,0.0,0.0,64,0.00,,,0.00,,2013-04-06 17:52:00,
2013-04-06 21:02:00,67.0,55.0,29.70,North,0,0.0,0.0,65,0.00,,,0.00,,2013-04-06 18:02:00,
2013-04-06 21:12:00,67.0,55.0,29.70,North,0,0.0,0.0,65,0.00,,,0.00,,2013-04-06 18:12:00,
2013-04-06 21:22:00,67.0,55.0,29.69,NE,45,0.0,2.0,65,0.00,,,0.00,,2013-04-06 18:22:00,
2013-04-06 21:32:00,67.0,55.0,29.71,North,0,0.0,0.0,65,0.00,,,0.00,,2013-04-06 18:32:00,
2013-04-06 21:42:00,67.0,55.0,29.71,North,0,0.0,0.0,65,0.00,,,0.00,,2013-04-06 18:42:00,
2013-04-06 21:52:00,67.0,54.0,29.70,North,0,0.0,0.0,64,0.00,,,0.00,,2013-04-06 18:52:00,
2013-04-06 22:02:00,67.0,54.0,29.70,NNE,14,1.0,3.0,64,0.00,,,0.00,,2013-04-06 19:02:00,
2013-04-06 22:11:00,67.0,54.0,29.70,NNE,14,1.0,3.0,64,0.00,,,0.00,,2013-04-06 19:11:00,
2013-04-06 22:22:00,67.0,54.0,29.70,NE,38,1.0,3.0,64,0.00,,,0.00,,2013-04-06 19:22:00,
2013-04-06 22:32:00,67.0,54.0,29.70,WNW,303,0.0,1.0,64,0.00,,,0.00,,2013-04-06 19:32:00,
2013-04-06 22:41:00,67.0,54.0,29.70,WNW,303,0.0,1.0,64,0.00,,,0.00,,2013-04-06 19:41:00,
2013-04-06 22:52:00,67.0,55.0,29.72,West,273,0.0,3.0,65,0.00,,,0.00,,2013-04-06 19:52:00,
2013-04-06 23:02:00,67.0,55.0,29.69,NNE,21,0.0,2.0,65,0.00,,,0.00,,2013-04-06 20:02:00,
2013-04-06 23:12:00,67.0,55.0,29.69,NNE,21,0.0,2.0,65,0.00,,,0.00,,2013-04-06 20:12:00,
2013-04-06 23:22:00,66.0,54.0,29.70,East,90,0.0,3.0,66,0.00,,,0.00,,2013-04-06 20:22:00,
2013-04-06 23:32:00,66.0,55.0,29.69,NE,48,0.0,2.0,67,0.00,,,0.00,,2013-04-06 20:32:00,
2013-04-06 23:41:00,66.0,55.0,29.69,NE,48,0.0,2.0,67,0.00,,,0.00,,2013-04-06 20:41:00,
2013-04-06 23:52:00,66.0,55.0,29.67,NNE,27,1.0,3.0,68,0.00,,,0.00,,2013-04-06 20:52:00,